Chariton, IA

12:52 PM CDT on May 27, 2017 (GMT -0500)
Chariton Municipal

Weather History for KCNC - January, 2012

Change the Weather History Date:

Sunday, January 8, 2012

  Actual Average Record
Temperature  
Mean Temperature 33 °F -  
Max Temperature 42 °F 26 °F 68 °F (2003)
Min Temperature 24 °F 7 °F -17 °F (1979)
Degree Days  
Heating Degree Days 32    
Moisture  
Dew Point 23 °F    
Average Humidity 70    
Maximum Humidity 80    
Minimum Humidity 49    
Precipitation  
Precipitation 0.00 in - - ()
Sea Level Pressure  
Sea Level Pressure 30.30 in    
Wind  
Wind Speed 1 mph (NNW)    
Max Wind Speed 4 mph    
Max Gust Speed -    
Visibility 10 miles    
Events      
Averages and records for this station are not official NWS values.
T = Trace of Precipitation, MM = Missing Value Source: NWS Daily Summary

Daily Weather History Graph

Daily Weather History Graph

Search for Another Location

Airport or City:

Trip Planner

Search our weather history database for the weather conditions in past years. The results will help you decide how hot, cold, wet, or windy it might be!

Date:

Astronomy

Jan. 08, 2012 Rise Set
Actual Time 7:38 AM CST 5:01 PM CST
Civil Twilight 7:07 AM CST 5:32 PM CST
Nautical Twilight 6:33 AM CST 6:06 PM CST
Astronomical Twilight 6:00 AM CST 6:40 PM CST
Moon 4:45 PM CST (1/8) 6:57 AM CST (1/8)
Length of Visible Light 10h 25m
Length of Day
9h 23m
Full, 100% of the Moon is Illuminated
Jan 8
Full
Jan 9
Full
Jan 16
Last Quarter
Jan 23
New
Jan 30
First Quarter

Hourly Weather History & Observations

Time (CST) Temp. Windchill Dew Point Humidity Pressure Visibility Wind Dir Wind Speed Gust Speed Precip Events Conditions
12:15 AM 30.2 °F - 23.0 °F 75% 30.27 in 10.0 mi Calm Calm - N/A   Clear
12:35 AM 30.2 °F 26.7 °F 23.0 °F 75% 30.27 in 10.0 mi North 3.5 mph - N/A   Clear
12:55 AM 30.2 °F - 23.0 °F 75% 30.27 in 10.0 mi Calm Calm - N/A   Clear
1:15 AM 28.4 °F 24.6 °F 21.2 °F 74% 30.27 in 10.0 mi North 3.5 mph - N/A   Clear
1:35 AM 28.4 °F - 21.2 °F 74% 30.27 in 10.0 mi Calm Calm - N/A   Clear
1:55 AM 28.4 °F - 23.0 °F 80% 30.28 in 10.0 mi Calm Calm - N/A   Clear
2:15 AM 28.4 °F - 23.0 °F 80% 30.28 in 10.0 mi Calm Calm - N/A   Clear
2:35 AM 28.4 °F - 21.2 °F 74% 30.28 in 10.0 mi Calm Calm - N/A   Clear
2:55 AM 28.4 °F - 21.2 °F 74% 30.28 in 10.0 mi Calm Calm - N/A   Clear
3:15 AM 28.4 °F - 21.2 °F 74% 30.28 in 10.0 mi Calm Calm - N/A   Clear
3:35 AM 28.4 °F - 21.2 °F 74% 30.28 in 10.0 mi Calm Calm - N/A   Clear
3:55 AM 26.6 °F - 21.2 °F 80% 30.28 in 10.0 mi Calm Calm - N/A   Clear
4:35 AM 26.6 °F - 21.2 °F 80% 30.28 in 10.0 mi Calm Calm - N/A   Clear
4:55 AM 26.6 °F 22.6 °F 21.2 °F 80% 30.28 in 10.0 mi North 3.5 mph - N/A   Clear
5:15 AM 26.6 °F - 21.2 °F 80% 30.28 in 10.0 mi Calm Calm - N/A   Clear
5:35 AM 26.6 °F - 21.2 °F 80% 30.28 in 10.0 mi Calm Calm - N/A   Clear
5:55 AM 26.6 °F - 21.2 °F 80% 30.28 in 10.0 mi Calm Calm - N/A   Clear
6:15 AM 24.8 °F - 19.4 °F 80% 30.29 in 10.0 mi Calm Calm - N/A   Clear
6:35 AM 24.8 °F - 19.4 °F 80% 30.29 in 10.0 mi Calm Calm - N/A   Clear
6:55 AM 24.8 °F - 19.4 °F 80% 30.30 in 10.0 mi Calm Calm - N/A   Clear
7:15 AM 24.8 °F - 19.4 °F 80% 30.31 in 10.0 mi Calm Calm - N/A   Clear
7:35 AM 26.6 °F - 21.2 °F 80% 30.31 in 10.0 mi Calm Calm - N/A   Clear
7:55 AM 26.6 °F - 21.2 °F 80% 30.31 in 10.0 mi Calm Calm - N/A   Clear
8:15 AM 26.6 °F - 21.2 °F 80% 30.32 in 10.0 mi Calm Calm - N/A   Clear
8:35 AM 26.6 °F - 21.2 °F 80% 30.33 in 10.0 mi Calm Calm - N/A   Clear
8:55 AM 26.6 °F - 21.2 °F 80% 30.34 in 10.0 mi Calm Calm - N/A   Clear
9:15 AM 28.4 °F - 23.0 °F 80% 30.35 in 10.0 mi Calm Calm - N/A   Clear
9:35 AM 30.2 °F - 24.8 °F 80% 30.35 in 10.0 mi Calm Calm - N/A   Clear
9:55 AM 30.2 °F - 24.8 °F 80% 30.36 in 10.0 mi Calm Calm - N/A   Clear
10:15 AM 32.0 °F - 26.6 °F 80% 30.36 in 10.0 mi Calm Calm - N/A   Clear
10:35 AM 33.8 °F 30.8 °F 26.6 °F 75% 30.36 in 10.0 mi SSW 3.5 mph - N/A   Clear
10:55 AM 33.8 °F 30.8 °F 26.6 °F 75% 30.36 in 10.0 mi South 3.5 mph - N/A   Clear
11:15 AM 35.6 °F - 26.6 °F 70% 30.35 in 10.0 mi Calm Calm - N/A   Clear
11:35 AM 35.6 °F - 28.4 °F 75% 30.34 in 10.0 mi Calm Calm - N/A   Clear
11:55 AM 35.6 °F - 28.4 °F 75% 30.33 in 10.0 mi Calm Calm - N/A   Clear
12:15 PM 37.4 °F - 28.4 °F 70% 30.33 in 10.0 mi Calm Calm - N/A   Clear
12:35 PM 37.4 °F - 28.4 °F 70% 30.32 in 10.0 mi Calm Calm - N/A   Clear
1:15 PM 39.2 °F - 28.4 °F 65% 30.31 in 10.0 mi Calm Calm - N/A   Clear
1:35 PM 39.2 °F - 26.6 °F 61% 30.30 in 10.0 mi Calm Calm - N/A   Clear
1:55 PM 41.0 °F - 26.6 °F 57% 30.29 in 10.0 mi Calm Calm - N/A   Clear
2:15 PM 42.8 °F - 26.6 °F 53% 30.29 in 10.0 mi Calm Calm - N/A   Clear
2:35 PM 42.8 °F - 24.8 °F 49% 30.29 in 10.0 mi Calm Calm - N/A   Clear
2:55 PM 42.8 °F - 24.8 °F 49% 30.29 in 10.0 mi Calm Calm - N/A   Scattered Clouds
3:15 PM 42.8 °F - 24.8 °F 49% 30.29 in 10.0 mi Calm Calm - N/A   Clear
3:35 PM 42.8 °F - 24.8 °F 49% 30.29 in 10.0 mi Calm Calm - N/A   Clear
3:55 PM 42.8 °F - 24.8 °F 49% 30.28 in 10.0 mi Calm Calm - N/A   Clear
4:15 PM 42.8 °F - 24.8 °F 49% 30.28 in 10.0 mi Calm Calm - N/A   Clear
4:35 PM 41.0 °F - 24.8 °F 53% 30.29 in 10.0 mi Calm Calm - N/A   Clear
4:55 PM 41.0 °F - 23.0 °F 49% 30.30 in 10.0 mi Calm Calm - N/A   Clear
5:15 PM 39.2 °F - 23.0 °F 52% 30.31 in 10.0 mi Calm Calm - N/A   Scattered Clouds
5:35 PM 37.4 °F - 23.0 °F 56% 30.30 in 10.0 mi Calm Calm - N/A   Mostly Cloudy
5:55 PM 37.4 °F - 23.0 °F 56% 30.31 in 10.0 mi Calm Calm - N/A   Scattered Clouds
6:15 PM 37.4 °F - 24.8 °F 60% 30.31 in 10.0 mi Calm Calm - N/A   Scattered Clouds
6:35 PM 35.6 °F - 23.0 °F 60% 30.31 in 10.0 mi Calm Calm - N/A   Clear
6:55 PM 33.8 °F - 23.0 °F 65% 30.30 in 10.0 mi Calm Calm - N/A   Clear
7:15 PM 32.0 °F - 23.0 °F 69% 30.30 in 10.0 mi Calm Calm - N/A   Clear
7:35 PM 32.0 °F 28.7 °F 23.0 °F 69% 30.30 in 10.0 mi South 3.5 mph - N/A   Clear
7:55 PM 30.2 °F - 23.0 °F 75% 30.30 in 10.0 mi Calm Calm - N/A   Clear
8:15 PM 30.2 °F - 21.2 °F 69% 30.30 in 10.0 mi Calm Calm - N/A   Clear
8:35 PM 30.2 °F - 23.0 °F 75% 30.30 in 10.0 mi Calm Calm - N/A   Clear
8:55 PM 30.2 °F - 21.2 °F 69% 30.30 in 10.0 mi Calm Calm - N/A   Clear
9:15 PM 30.2 °F - 21.2 °F 69% 30.31 in 10.0 mi Calm Calm - N/A   Clear
9:55 PM 30.2 °F 26.7 °F 21.2 °F 69% 30.29 in 10.0 mi SW 3.5 mph - N/A   Clear
10:15 PM 28.4 °F 24.6 °F 21.2 °F 74% 30.29 in 10.0 mi SSW 3.5 mph - N/A   Clear
10:35 PM 30.2 °F 25.4 °F 21.2 °F 69% 30.28 in 10.0 mi SSW 4.6 mph - N/A   Clear
10:55 PM 28.4 °F 24.6 °F 21.2 °F 74% 30.28 in 10.0 mi SSW 3.5 mph - N/A   Clear
11:15 PM 26.6 °F 21.2 °F 19.4 °F 74% 30.29 in 10.0 mi SW 4.6 mph - N/A   Clear
11:35 PM 28.4 °F 23.3 °F 21.2 °F 74% 30.28 in 10.0 mi SW 4.6 mph - N/A   Clear
11:55 PM 26.6 °F 21.2 °F 19.4 °F 74% 30.28 in 10.0 mi SW 4.6 mph - N/A   Clear